Date String (YYYY-MM-DD hh:mm:ss) UTC,Instrument flags,Ambient pressure (hPa),Sample flow (lpm),Bypass flow (lpm),Sample temperature (°C),Ambient temperature (°C),ASC tube jacket temperature (°C),LED temperature (°C),Box temperature (°C),Sample RH (%),Span deviation,Mass concentration (μg/m³),Mass concentration (μg/m³),Mass concentration (μg/m³)
DateTimeUTC,F1_M11,P_M11,Q1_M11,Q2_M11,T1_M11,T2_M11,T3_M11,T4_M11,T5_M11,U1_M11,ZSPAN_M11,X0_M11,X2_M11,X1_M11
2022-06-01 09:00:00,,0832.8,5.00,0.00,26.0,24.9,00.0,35.0,27.9,22.0,0000.0,0001.56,0000.91,0000.62
2022-06-01 09:01:00,,0832.8,4.99,0.00,26.0,24.9,00.0,35.0,27.9,22.0,0000.0,0001.53,0000.89,0000.60
2022-06-01 09:02:00,,0832.8,5.01,0.00,26.0,24.9,00.0,35.0,27.9,22.0,0000.0,0001.58,0000.87,0000.60
2022-06-01 09:03:00,,0832.8,4.99,0.00,26.0,24.9,00.0,35.0,27.9,22.0,0000.0,0001.53,0000.84,0000.59
2022-06-01 09:04:00,,0832.7,5.02,0.00,26.0,24.9,00.0,35.0,27.9,21.9,0000.0,0001.52,0000.84,0000.58
2022-06-01 09:05:00,,0832.7,4.99,0.00,26.0,24.9,00.0,35.0,27.9,21.9,0000.0,0001.81,0000.85,0000.57
2022-06-01 09:06:00,,0832.7,5.00,0.00,26.0,24.9,00.0,35.0,27.9,21.9,0000.0,0002.41,0000.86,0000.56
2022-06-01 09:07:00,,0832.7,5.01,0.00,26.0,24.9,00.0,35.0,27.9,21.8,0000.0,0002.39,0000.85,0000.55
2022-06-01 09:08:00,,0832.7,4.99,0.00,26.0,24.9,00.0,35.0,27.9,21.8,0000.0,0002.34,0000.82,0000.55
2022-06-01 09:09:00,,0832.7,5.01,0.00,26.0,24.9,00.0,35.0,27.8,21.8,0000.0,0002.27,0000.80,0000.54
2022-06-01 09:10:00,,0832.7,5.01,0.00,26.0,24.9,00.0,35.0,27.8,21.8,0000.0,0002.26,0000.79,0000.54
2022-06-01 09:11:00,,0832.7,5.00,0.00,26.0,24.8,00.0,35.0,27.8,21.7,0000.0,0002.25,0000.78,0000.54
2022-06-01 09:12:00,,0832.7,5.00,0.00,25.9,24.8,00.0,35.0,27.8,21.8,0000.0,0002.25,0000.77,0000.54
2022-06-01 09:13:00,,0832.7,4.99,0.00,25.9,24.8,00.0,34.9,27.8,21.9,0000.0,0002.13,0000.76,0000.53
2022-06-01 09:14:00,,0832.7,5.01,0.00,25.9,24.8,00.0,34.9,27.8,21.8,0000.0,0002.17,0000.78,0000.54
2022-06-01 09:15:00,,0832.7,4.99,0.00,25.9,24.8,00.0,34.9,27.7,21.8,0000.0,0002.15,0000.76,0000.54
2022-06-01 09:16:00,,0832.6,5.01,0.00,25.9,24.8,00.0,34.9,27.7,21.8,0000.0,0001.99,0000.73,0000.54
2022-06-01 09:17:00,,0832.6,5.00,0.00,25.9,24.7,00.0,34.9,27.7,21.7,0000.0,0001.20,0000.70,0000.54
2022-06-01 09:18:00,,0832.6,5.00,0.00,25.8,24.7,00.0,34.9,27.7,21.7,0000.0,0001.14,0000.68,0000.54
2022-06-01 09:19:00,,0832.7,5.01,0.00,25.8,24.7,00.0,34.9,27.7,21.7,0000.0,0001.25,0000.72,0000.54
2022-06-01 09:20:00,,0832.7,4.98,0.00,25.8,24.7,00.0,34.9,27.6,21.7,0000.0,0001.36,0000.75,0000.54
2022-06-01 09:21:00,,0832.6,5.00,0.00,25.8,24.6,00.0,34.9,27.6,21.7,0000.0,0001.34,0000.74,0000.54
2022-06-01 09:22:00,,0832.5,5.00,0.00,25.8,24.6,00.0,34.8,27.6,21.8,0000.0,0001.28,0000.72,0000.54
2022-06-01 09:23:00,,0832.5,5.00,0.00,25.8,24.6,00.0,34.8,27.6,21.8,0000.0,0001.23,0000.70,0000.53
2022-06-01 09:24:00,,0832.5,5.03,0.00,25.7,24.6,00.0,34.8,27.6,21.8,0000.0,0001.11,0000.69,0000.53
2022-06-01 09:25:00,,0832.5,4.99,0.00,25.7,24.6,00.0,34.8,27.6,21.8,0000.0,0001.07,0000.68,0000.52
2022-06-01 09:26:00,,0832.5,5.00,0.00,25.7,24.6,00.0,34.8,27.6,21.7,0000.0,0001.11,0000.69,0000.51
2022-06-01 09:27:00,,0832.6,5.00,0.00,25.7,24.6,00.0,34.8,27.6,21.7,0000.0,0001.26,0000.73,0000.51
2022-06-01 09:28:00,,0832.6,4.99,0.00,25.7,24.6,00.0,34.8,27.5,21.7,0000.0,0001.32,0000.75,0000.51
2022-06-01 09:29:00,,0832.7,5.00,0.00,25.7,24.6,00.0,34.7,27.5,21.8,0000.0,0001.36,0000.76,0000.51
2022-06-01 09:30:00,,0832.7,4.99,0.00,25.7,24.5,00.0,34.7,27.5,21.8,0000.0,0001.34,0000.75,0000.50
2022-06-01 09:31:00,,0832.7,5.01,0.00,25.7,24.5,00.0,34.7,27.5,21.8,0000.0,0001.25,0000.72,0000.50
2022-06-01 09:32:00,,0832.7,4.99,0.00,25.6,24.5,00.0,34.7,27.5,21.8,0000.0,0001.23,0000.71,0000.50
2022-06-01 09:33:00,,0832.7,5.00,0.00,25.6,24.5,00.0,34.7,27.5,21.8,0000.0,0001.28,0000.74,0000.50
2022-06-01 09:34:00,,0832.6,5.00,0.00,25.6,24.5,00.0,34.7,27.5,21.8,0000.0,0001.29,0000.74,0000.49
2022-06-01 09:35:00,,0832.5,5.02,0.00,25.6,24.5,00.0,34.7,27.4,21.8,0000.0,0001.31,0000.75,0000.50
2022-06-01 09:36:00,,0832.5,4.99,0.00,25.6,24.5,00.0,34.7,27.4,21.7,0000.0,0001.64,0000.76,0000.50
2022-06-01 09:37:00,,0832.4,5.00,0.00,25.6,24.5,00.0,34.6,27.4,21.8,0000.0,0001.73,0000.76,0000.50
2022-06-01 09:38:00,,0832.4,5.01,0.00,25.6,24.5,00.0,34.6,27.4,21.8,0000.0,0001.66,0000.75,0000.50
2022-06-01 09:39:00,,0832.4,4.99,0.00,25.6,24.4,00.0,34.6,27.4,21.7,0000.0,0001.67,0000.70,0000.50
2022-06-01 09:40:00,,0832.5,5.01,0.00,25.5,24.4,00.0,34.6,27.4,21.7,0000.0,0003.09,0000.68,0000.49
2022-06-01 09:41:00,,0832.4,4.98,0.00,25.5,24.4,00.0,34.6,27.4,21.7,0000.0,0003.04,0000.67,0000.50
2022-06-01 09:42:00,,0832.4,5.01,0.00,25.5,24.4,00.0,34.6,27.4,21.7,0000.0,0002.94,0000.63,0000.49
2022-06-01 09:43:00,,0832.4,4.99,0.00,25.5,24.4,00.0,34.6,27.3,21.7,0000.0,0002.96,0000.65,0000.49
2022-06-01 09:44:00,,0832.4,5.00,0.00,25.5,24.4,00.0,34.6,27.3,21.7,0000.0,0002.96,0000.64,0000.49
2022-06-01 09:45:00,,0832.4,5.00,0.00,25.5,24.4,00.0,34.6,27.3,21.7,0000.0,0002.97,0000.66,0000.49
2022-06-01 09:46:00,,0832.4,5.01,0.00,25.5,24.4,00.0,34.5,27.3,21.7,0000.0,0003.07,0000.69,0000.48
2022-06-01 09:47:00,,0832.4,4.98,0.00,25.5,24.4,00.0,34.5,27.3,21.7,0000.0,0002.78,0000.68,0000.48
2022-06-01 09:48:00,,0832.4,5.01,0.00,25.4,24.4,00.0,34.5,27.3,21.8,0000.0,0002.75,0000.69,0000.48
2022-06-01 09:49:00,,0832.4,4.99,0.00,25.4,24.4,00.0,34.5,27.3,21.8,0000.0,0002.74,0000.69,0000.48
2022-06-01 09:50:00,,0832.5,5.00,0.00,25.4,24.3,00.0,34.5,27.3,21.8,0000.0,0002.69,0000.70,0000.49
2022-06-01 09:51:00,,0832.3,4.99,0.00,25.4,24.3,00.0,34.5,27.3,21.8,0000.0,0001.22,0000.73,0000.49
2022-06-01 09:52:00,,0832.4,5.01,0.00,25.4,24.3,00.0,34.5,27.2,21.8,0000.0,0001.25,0000.74,0000.48
2022-06-01 09:53:00,,0832.4,4.99,0.00,25.4,24.3,00.0,34.5,27.2,21.8,0000.0,0001.30,0000.76,0000.49
2022-06-01 09:54:00,,0832.4,5.01,0.00,25.4,24.3,00.0,34.5,27.2,21.8,0000.0,0001.31,0000.76,0000.51
2022-06-01 09:55:00,,0832.3,4.99,0.00,25.4,24.3,00.0,34.4,27.2,21.8,0000.0,0001.32,0000.77,0000.52
2022-06-01 09:56:00,,0832.3,5.01,0.00,25.4,24.2,00.0,34.4,27.2,21.8,0000.0,0001.28,0000.75,0000.53
2022-06-01 09:57:00,,0832.4,5.00,0.00,25.3,24.2,00.0,34.4,27.2,21.8,0000.0,0001.20,0000.72,0000.54
2022-06-01 09:58:00,,0832.5,5.01,0.00,25.3,24.2,00.0,34.4,27.2,21.8,0000.0,0001.19,0000.72,0000.55
2022-06-01 09:59:00,,0832.5,4.99,0.00,25.3,24.2,00.0,34.4,27.2,21.8,0000.0,0001.16,0000.73,0000.56
